Location: Darmstadt
(49.8706°N, 8.6494°E)
Time: 06:43:53
(UTC+01:00)

ERBS - Pass Details

Date: 31 October 2020
Orbit: 406 x 422 km, 57.0° (Epoch: 02 December)

Event Time Altitude Azimuth Distance (km) Brightness Sun altitude
Rises 19:17:22 0° 303° (WNW) 2,375 7.1 -22.0°
Reaches altitude 10° 19:19:29 10° 309° (NW) 1,511 5.8 -22.3°
Enters shadow 19:21:47 36° 332° (NNW) 686 3.5 -22.7°
